CW8310 Weather Reports


time (UTC)temp
C
wind
direction
speed
KPH
gust
KPH
rain 1hr
cm
rain 24hr
cm
rain mn
cm
humidity
%
barometer
mb
20260503220506 15 0.0 0.0 0.00 0.00 0.00 32 1013.0
20260503220007 15 0.0 0.0 0.00 0.00 0.00 33 1012.9
20260503215505 15 0.0 0.0 0.00 0.00 0.00 32 1013.1
20260503215006 15 0.0 0.0 0.00 0.00 0.00 32 1012.9
20260503214507 15 0.0 0.0 0.00 0.00 0.00 31 1012.9
20260503214004 15 0.0 0.0 0.00 0.00 0.00 33 1012.9
20260503213506 15 0.0 0.0 0.00 0.00 0.00 31 1012.9
20260503213009 15 0.0 0.0 0.00 0.00 0.00 33 1012.9
20260503212507 15 0.0 0.0 0.00 0.00 0.00 33 1012.9
20260503212007 15 0.0 0.0 0.00 0.00 0.00 31 1012.9
20260503211516 15 0.0 0.0 0.00 0.00 0.00 32 1012.8
20260503211005 15 0.0 0.0 0.00 0.00 0.00 31 1012.8
20260503210509 15 0.0 0.0 0.00 0.00 0.00 32 1012.9
20260503210022 15 0.0 0.0 0.00 0.00 0.00 33 1012.9
20260503205508 15 0.0 0.0 0.00 0.00 0.00 31 1012.7
20260503205007 15 0.0 0.0 0.00 0.00 0.00 33 1012.7
20260503204506 15 0.0 0.0 0.00 0.00 0.00 33 1012.8
20260503204003 15 0.0 0.0 0.00 0.00 0.00 33 1012.7
20260503203503 15 0.0 0.0 0.00 0.00 0.00 32 1012.7
20260503203020 15 0.0 0.0 0.00 0.00 0.00 33 1012.7
20260503202508 15 0.0 0.0 0.00 0.00 0.00 33 1012.7
20260503202008 15 0.0 0.0 0.00 0.00 0.00 35 1012.6
20260503201515 15 0.0 0.0 0.00 0.00 0.00 35 1012.7
20260503201008 15 0.0 0.0 0.00 0.00 0.00 34 1012.7
20260503200509 15 0.0 0.0 0.00 0.00 0.00 34 1012.8
20260503200014 15 0.0 0.0 0.00 0.00 0.00 33 1013.0
20260503195509 15 0.0 0.0 0.00 0.00 0.00 33 1012.9
20260503195010 15 0.0 0.0 0.00 0.00 0.00 35 1012.9
20260503194506 15 0.0 0.0 0.00 0.00 0.00 36 1012.9
20260503194002 15 0.0 0.0 0.00 0.00 0.00 35 1012.9
20260503193506 15 0.0 0.0 0.00 0.00 0.00 36 1012.9
20260503193009 15 0.0 0.0 0.00 0.00 0.00 36 1013.1
20260503192504 15 0.0 0.0 0.00 0.00 0.00 37 1013.0
20260503192000 14 0.0 0.0 0.00 0.00 0.00 37 1013.0
20260503191503 14 0.0 0.0 0.00 0.00 0.00 37 1013.1
20260503191003 13 0.0 0.0 0.00 0.00 0.00 37 1013.3
20260503190501 13 0.0 0.0 0.00 0.00 0.00 38 1013.3
20260503190004 13 0.0 0.0 0.00 0.00 0.00 38 1013.3
20260503185503 14 0.0 0.0 0.00 0.00 0.00 41 1013.3
20260503185003 14 0.0 0.0 0.00 0.00 0.00 38 1013.4
20260503184505 13 0.0 0.0 0.00 0.00 0.00 38 1013.4
20260503184004 13 0.0 0.0 0.00 0.00 0.00 38 1013.5
20260503183504 13 0.0 0.0 0.00 0.00 0.00 39 1013.5
20260503183004 13 0.0 0.0 0.00 0.00 0.00 37 1013.5
20260503182500 13 0.0 0.0 0.00 0.00 0.00 40 1013.6
20260503182006 13 0.0 0.0 0.00 0.00 0.00 38 1013.7
20260503181510 13 0.0 0.0 0.00 0.00 0.00 37 1013.6
20260503181004 13 0.0 0.0 0.00 0.00 0.00 38 1013.7
20260503180503 13 0.0 0.0 0.00 0.00 0.00 38 1013.8
20260503180024 13 0.0 0.0 0.00 0.00 0.00 39 1013.8
20260503175501 13 0.0 0.0 0.00 0.00 0.00 38 1013.6
20260503175003 13 0.0 0.0 0.00 0.00 0.00 41 1013.8
20260503174510 12 0.0 0.0 0.00 0.00 0.00 40 1013.8
20260503174005 12 0.0 0.0 0.00 0.00 0.00 41 1013.8
20260503173504 12 0.0 0.0 0.00 0.00 0.00 39 1013.9
20260503173007 12 0.0 0.0 0.00 0.00 0.00 41 1013.7
20260503172504 12 0.0 0.0 0.00 0.00 0.00 41 1013.8
20260503172004 12 0.0 0.0 0.00 0.00 0.00 41 1013.8
20260503171508 13 0.0 0.0 0.00 0.00 0.00 40 1013.8
20260503171006 12 0.0 0.0 0.00 0.00 0.00 40 1013.7
20260503170509 13 0.0 0.0 0.00 0.00 0.00 39 1013.7
20260503151004 11 0.0 0.0 0.00 0.00 0.00 46 1014.1
20260503150506 11 0.0 0.0 0.00 0.00 0.00 46 1014.2
20260503131010 9 0.0 0.0 0.00 0.00 0.00 54 1014.1
20260503130508 10 0.0 0.0 0.00 0.00 0.00 53 1014.1
20260503110512 7 0.0 0.0 0.00 0.00 0.00 59 1013.1
20260503090504 8 0.0 0.0 0.00 0.00 0.00 54 1011.6
20260503081506 8 0.0 0.0 0.00 0.00 0.00 56 1011.3
20260503081004 8 0.0 0.0 0.00 0.00 0.00 58 1011.3
20260503080504 8 0.0 0.0 0.00 0.00 0.00 57 1011.4
20260503072505 9 0.0 0.0 0.00 0.00 0.00 57 1011.3
20260503072002 9 0.0 0.0 0.00 0.00 0.00 56 1011.3
20260503071506 9 0.0 0.0 0.00 0.00 0.00 56 1011.4
20260503071006 9 0.0 0.0 0.00 0.00 0.00 56 1011.4
20260503070504 9 0.0 0.0 0.00 0.00 0.00 56 1011.4
20260503055005 10 0.0 0.0 0.00 0.00 0.00 52 1011.6
20260503054520 10 0.0 0.0 0.00 0.00 0.00 52 1011.6
20260503054006 10 0.0 0.0 0.00 0.00 0.00 52 1011.7
20260503053505 10 0.0 0.0 0.00 0.00 0.00 53 1011.8
20260503053006 10 0.0 0.0 0.00 0.00 0.00 51 1011.8
20260503052504 10 0.0 0.0 0.00 0.00 0.00 53 1011.7
20260503052010 10 0.0 0.0 0.00 0.00 0.00 53 1011.6
20260503051529 10 0.0 0.0 0.00 0.00 0.00 54 1011.7
20260503051004 10 0.0 0.0 0.00 0.00 0.00 53 1011.8
20260503050507 10 0.0 0.0 0.00 0.00 0.00 55 1011.8
20260503050021 10 0.0 0.0 0.00 0.00 0.00 56 1011.8
20260503045504 10 0.0 0.0 0.00 0.00 0.00 54 1012.0
20260503045005 10 0.0 0.0 0.00 0.00 0.00 56 1012.0
20260503044507 11 0.0 0.0 0.00 0.00 0.00 54 1012.1
20260503044006 11 0.0 0.0 0.00 0.00 0.00 55 1012.1
20260503043508 11 0.0 0.0 0.00 0.00 0.00 56 1012.2
20260503043010 11 0.0 0.0 0.00 0.00 0.00 57 1012.3
20260503042506 11 0.0 0.0 0.00 0.00 0.00 56 1012.4
20260503042006 11 0.0 0.0 0.00 0.00 0.00 57 1012.3
20260503041519 11 0.0 0.0 0.00 0.00 0.00 56 1012.4
20260503041007 11 0.0 0.0 0.00 0.00 0.00 56 1012.4
20260503040508 11 0.0 0.0 0.00 0.00 0.00 56 1012.4
20260503040010 11 0.0 0.0 0.00 0.00 0.00 57 1012.3
20260503035505 11 0.0 0.0 0.00 0.00 0.00 59 1012.2
20260503035011 11 0.0 0.0 0.00 0.00 0.00 57 1012.1
20260503034524 11 0.0 0.0 0.00 0.00 0.00 59 1012.1
20260503034007 11 0.0 0.0 0.00 0.00 0.00 60 1012.3
20260503033507 11 0.0 0.0 0.00 0.00 0.00 57 1012.3
20260503033010 11 0.0 0.0 0.00 0.00 0.00 57 1012.3
20260503032503 11 0.0 0.0 0.00 0.00 0.00 60 1012.1
20260503032006 11 0.0 0.0 0.00 0.00 0.00 58 1012.1
20260503031513 11 0.0 0.0 0.00 0.00 0.00 58 1012.4
20260503031007 11 0.0 0.0 0.00 0.00 0.00 58 1012.2
20260503030509 11 0.0 0.0 0.00 0.00 0.00 60 1012.1
20260503030021 11 0.0 0.0 0.00 0.00 0.00 58 1012.1
20260503025508 11 0.0 0.0 0.00 0.00 0.00 60 1012.3
20260503025007 11 0.0 0.0 0.00 0.00 0.00 61 1012.1
20260503024514 11 0.0 0.0 0.00 0.00 0.00 62 1012.1
20260503024011 11 0.0 0.0 0.00 0.00 0.00 63 1012.2
20260503023512 11 0.0 0.0 0.00 0.00 0.00 65 1012.1
20260503023011 11 0.0 0.0 0.00 0.00 0.00 68 1012.3
20260503022507 10 0.0 0.0 0.00 0.00 0.00 71 1012.4
20260503022010 10 0.0 0.0 0.00 0.00 0.00 75 1012.4
20260503021511 10 0.0 0.0 0.00 0.00 0.00 79 1012.4
20260503021007 10 0.0 0.0 0.00 0.00 0.00 81 1012.5
20260503020507 10 0.0 0.0 0.00 0.00 0.00 83 1012.2
20260503020015 10 0.0 0.0 0.00 0.00 0.00 83 1012.3
20260503015507 10 0.0 0.0 0.00 0.00 0.00 83 1012.3
20260503015008 10 0.0 0.0 0.00 0.00 0.00 83 1012.3
20260503014503 10 0.0 0.0 0.00 0.00 0.00 83 1012.4
20260503014003 10 0.0 0.0 0.00 0.00 0.00 84 1012.4
20260503013504 10 0.0 0.0 0.00 0.00 0.00 84 1012.6
20260503013010 10 0.0 0.0 0.00 0.00 0.00 84 1012.5
20260503012503 10 0.0 0.0 0.00 0.00 0.00 84 1012.4
20260503012004 10 0.0 0.0 0.00 0.00 0.00 83 1012.5
20260503011503 10 0.0 0.0 0.00 0.00 0.00 83 1012.4
20260503011004 10 0.0 0.0 0.00 0.00 0.00 83 1012.5
20260503010503 10 0.0 0.0 0.00 0.00 0.00 83 1012.4
20260503010010 11 0.0 0.0 0.00 0.00 0.00 83 1012.1
20260503005503 11 0.0 0.0 0.00 0.00 0.00 82 1012.0
20260503005004 11 0.0 0.0 0.00 0.00 0.00 82 1012.1
20260503004509 11 0.0 0.0 0.00 0.00 0.00 82 1012.0
20260503004003 11 0.0 0.0 0.00 0.00 0.00 82 1012.0
20260503003503 11 0.0 0.0 0.00 0.00 0.00 81 1011.9
20260503003005 11 0.0 0.0 0.00 0.00 0.00 81 1011.9
20260503002503 11 0.0 0.0 0.00 0.00 0.00 80 1011.8
20260503002003 11 0.0 0.0 0.00 0.00 0.00 80 1011.8
20260503001506 11 0.0 0.0 0.00 0.00 0.00 80 1011.8
20260503001007 11 0.0 0.0 0.00 0.00 0.00 79 1011.8
20260503000507 11 0.0 0.0 0.00 0.00 0.00 79 1011.8
20260503000003 12 0.0 0.0 0.00 0.00 0.00 78 1011.8
20260502235504 12 0.0 0.0 0.00 0.00 0.00 78 1011.8
20260502235007 12 0.0 0.0 0.00 0.00 0.00 77 1011.9
20260502234504 12 0.0 0.0 0.00 0.00 0.00 76 1011.8
20260502234009 12 0.0 0.0 0.00 0.00 0.00 76 1011.9
20260502233507 12 0.0 0.0 0.00 0.00 0.00 75 1011.9
20260502233017 12 0.0 0.0 0.00 0.00 0.00 76 1011.9
20260502232503 12 0.0 0.0 0.00 0.00 0.00 75 1011.8
20260502232003 12 0.0 0.0 0.00 0.00 0.00 76 1011.9
20260502231504 12 0.0 0.0 0.00 0.00 0.00 74 1011.8
20260502231003 12 0.0 0.0 0.00 0.00 0.00 75 1012.0
20260502230503 12 0.0 0.0 0.00 0.00 0.00 75 1012.0
20260502230009 12 0.0 0.0 0.00 0.00 0.00 75 1011.9
20260502225503 12 0.0 0.0 0.00 0.00 0.00 75 1011.7
20260502225004 12 0.0 0.0 0.00 0.00 0.00 74 1011.8
20260502224506 12 0.0 0.0 0.00 0.00 0.00 74 1011.7
20260502224008 12 0.0 0.0 0.00 0.00 0.00 74 1011.8
20260502223507 13 0.0 0.0 0.00 0.00 0.00 73 1011.7
20260502223005 13 0.0 0.0 0.00 0.00 0.00 73 1011.6
20260502222504 13 0.0 0.0 0.00 0.00 0.00 73 1011.6
20260502222006 13 0.0 0.0 0.00 0.00 0.00 73 1011.7
20260502221504 13 0.0 0.0 0.00 0.00 0.00 72 1011.7
20260502221008 13 0.0 0.0 0.00 0.00 0.00 73 1011.6